[[{"header":{"parameterUnit":"m.s-1","parameterCategory":1,"la1":30.2991,"la2":30.254,"lo1":-89.0895,"lo2":-89.0444,"dy":0.0017,"dx":0.0017,"nx":28,"ny":28,"refTime":"2024-06-22T21:00:00:Z","depth":0,"parameterNumber":2,"parameterNumberName":"U-component_of_WINDS"},"data":[0,0,0,0,0,0,0,0,0,0,0,0,0,0,0,0,0,0,0,0,0,0,0,0,0,0,0,0,0,0,0,0,0,0,0,0,0,0,0,0,0,0,0,0,0,0,0,0,0,0,0,0,0,0,0,0,0,0,2.1897,2.1898,0,2.1985,2.1986,2.1987,2.1983,2.1982,2.1981,2.1979,2.2068,2.2072,2.2075,0,0,0,0,0,0,0,0,0,0,0,0,0,2.1722,2.1726,2.1897,2.1898,2.1899,2.1985,2.1986,2.1988,2.1983,2.1982,2.198,2.1979,2.2067,2.2071,2.2075,0,0,0,0,0,0,0,0,0,0,0,0,0,2.1803,2.1727,2.1897,2.1908,2.1909,2.1985,2.1986,2.1988,2.1984,2.1982,2.198,2.1978,2.2066,2.2071,2.2076,2.2146,0,0,2.2092,2.2094,0,0,0,0,0,0,0,0,2.1799,2.181,2.1905,2.1907,2.1909,2.1971,2.1957,2.2041,2.1984,2.1955,2.1979,2.1977,2.2037,2.2045,2.2065,2.215,2.2154,2.2093,2.2096,2.2098,2.21,0,0,0,0,0,0,0,2.1793,2.1806,2.1932,2.1906,2.1909,2.1907,2.1916,2.1973,2.2006,2.1958,2.1958,2.1968,2.2038,2.206,2.2068,2.2155,2.2093,2.2097,2.21,2.2103,2.2299,2.2301,0,0,0,0,0,0,2.1785,2.1801,2.1929,2.1935,2.1848,2.1912,2.1922,2.1953,2.2005,2.2011,2.197,2.1968,2.2052,2.2061,2.2071,2.2153,2.2098,2.2103,2.2106,2.2297,2.2299,2.2301,0,0,0,0,0,0,2.1782,2.1797,2.1926,2.1868,2.1884,2.1917,2.1952,2.1956,2.1978,2.2014,2.202,2.1987,2.2051,2.2063,2.2127,2.2157,2.2105,2.211,2.2294,2.2298,2.23,2.2321,0,0,0,0,0,0,2.1777,2.1796,2.1823,2.1869,2.1887,2.1981,2.1954,2.1959,2.1987,2.1986,2.2032,2.2037,2.2051,2.2119,2.2132,2.2163,2.2114,2.2292,2.2296,2.2299,2.2318,2.2325,2.233,0,0,0,0,0,2.177,2.1826,2.1825,2.184,2.1923,2.1983,2.1994,2.2008,2.199,2.2017,2.204,2.2036,2.2152,2.2125,2.214,2.2173,2.229,2.2295,2.2299,2.2315,2.2323,2.233,0,0,0,0,0,0,2.1784,2.1832,2.1831,2.1904,2.1939,2.1982,2.2017,2.2017,2.2058,2.2054,2.207,2.2081,2.2144,2.2165,2.2135,2.2242,2.2218,2.2226,2.2226,2.2234,2.224,2.2232,2.2119,0,0,0,0,0,2.1795,2.1841,2.1881,2.194,2.1958,2.1985,2.2012,2.202,2.2057,2.2072,2.2099,2.2135,2.2179,2.2208,2.2251,2.2322,2.233,2.2352,2.2358,2.2363,2.2368,2.2404,2.2414,2.2317,2.2316,2.2316,0,0,2.1819,2.1851,2.1879,2.1944,2.1972,2.2017,2.1997,2.2047,2.208,2.2079,2.214,2.2162,2.2202,2.2269,2.23,2.2289,2.2397,2.2369,2.2372,2.2375,2.241,2.2419,2.2427,2.232,2.2319,2.2319,0,0,2.1885,2.1915,2.1967,2.1995,2.2038,2.2055,2.2068,2.2111,2.2125,2.2186,2.2186,2.2225,2.2302,2.233,2.2354,2.2429,2.2426,2.2443,2.2474,2.2509,2.2517,2.2523,2.2547,2.2556,2.2449,2.2449,2.2449,0,2.1908,2.1978,2.1993,2.2042,2.2069,2.2071,2.2122,2.2149,2.2204,2.2222,2.2209,2.2304,2.2332,2.2403,2.2421,2.2442,2.2455,2.2437,2.2515,2.2522,2.2528,2.2551,2.256,2.2451,2.245,2.245,2.245,0,2.2003,2.2051,2.2087,2.214,2.2171,2.2222,2.2243,2.2273,2.2278,2.2296,2.2357,2.2391,2.2439,2.2457,2.2463,2.2529,2.2521,2.2511,2.2487,2.2539,2.256,2.2569,2.2453,2.2452,2.2452,2.2451,0,0,2.208,2.2139,2.2152,2.2174,2.2221,2.2258,2.2307,2.2354,2.2378,2.2416,2.2456,2.252,2.2511,2.2539,2.2548,2.2579,2.2632,2.2565,2.2566,2.2574,2.2703,2.2708,2.2718,2.2631,2.2633,2.2634,2.2699,0,2.2148,2.2236,2.225,2.2326,2.2369,2.237,2.2412,2.2445,2.2463,2.2501,2.2521,2.2564,2.2551,2.2567,2.2598,2.2619,2.2658,2.2615,2.2666,2.2668,2.2653,2.273,2.2736,2.2796,2.2708,2.2709,2.271,0,2.224,2.2279,2.2359,2.2398,2.2416,2.2454,2.2497,2.2535,2.2571,2.2581,2.2611,2.2616,2.2665,2.2641,2.2707,2.2678,2.27,2.2713,2.2716,2.2719,2.269,2.2733,2.2816,2.2823,2.2724,2.2723,2.2722,0,2.2283,2.2357,2.2413,2.2433,2.2481,2.2507,2.2528,2.2562,2.2589,2.2627,2.2643,2.2687,2.271,2.2742,2.2758,2.2739,2.2822,2.28,2.2831,2.283,2.2847,2.2845,2.2931,2.2865,2.2865,2.2865,2.2865,0,2.2357,2.2405,2.2433,2.2468,2.2521,2.2537,2.2589,2.2609,2.264,2.2677,2.2681,2.2716,2.2736,2.2773,2.2786,2.2837,2.2849,2.2857,2.2859,2.2855,2.2854,2.2868,2.2863,2.2867,2.2867,2.2866,2.2866,0,2.2414,2.2435,2.2496,2.2536,2.2547,2.2585,2.2618,2.2651,2.2668,2.2715,2.2727,2.2754,2.2798,2.2817,2.2872,2.288,2.2938,2.2939,2.2926,2.2926,2.2955,2.2951,2.3051,2.3064,2.2992,2.2992,2.2993,0,2.2459,2.2496,2.2539,2.2564,2.2586,2.2627,2.2654,2.267,2.2698,2.2741,2.2768,2.2812,2.2848,2.2917,2.2941,2.2982,2.2982,2.3015,2.2988,2.2982,2.2979,2.2976,2.2978,2.3019,2.3019,2.302,2.302,0,2.2534,2.2542,2.2581,2.2623,2.2654,2.2688,2.2721,2.2742,2.2763,2.2794,2.2838,2.2866,2.2921,2.2963,2.3006,2.3026,2.3026,2.3029,2.3037,2.3032,2.3022,2.3025,2.2936,2.3026,2.3025,2.3025,2.3025,2.3024,2.2584,2.2616,2.2651,2.2693,2.272,2.275,2.2782,2.2803,2.284,2.2886,2.2894,2.2941,2.2974,2.303,2.3052,2.3088,2.308,2.3094,2.3097,2.3099,2.3099,2.3018,2.3097,2.3096,2.3096,2.3096,2.3096,0,2.2657,2.268,2.2718,2.2764,2.2796,2.2795,2.283,2.2857,2.2899,2.293,2.2965,2.3015,2.3056,2.3083,2.3124,2.3147,2.3148,2.3157,2.3154,2.3159,2.3106,2.3093,2.3156,2.3156,2.3156,2.3156,2.3156,2.3156,2.2699,2.2752,2.2764,2.2829,2.285,2.2896,2.2917,2.2944,2.2968,2.3024,2.3058,2.3075,2.3104,2.3147,2.3184,2.3191,2.3204,2.3214,2.3219,2.3169,2.3163,2.3157,2.3144,2.3217,2.3217,2.3269,2.3269,2.327]},{"header":{"parameterUnit":"m.s-1","parameterCategory":1,"la1":30.2991,"la2":30.254,"lo1":-89.0895,"lo2":-89.0444,"dy":0.0017,"dx":0.0017,"nx":28,"ny":28,"refTime":"2024-06-22T21:00:00:Z","depth":0,"parameterNumber":3,"parameterNumberName":"V-component_of_WINDS"},"data":[0,0,0,0,0,0,0,0,0,0,0,0,0,0,0,0,0,0,0,0,0,0,0,0,0,0,0,0,0,0,0,0,0,0,0,0,0,0,0,0,0,0,0,0,0,0,0,0,0,0,0,0,0,0,0,0,0,0,2.0101,2.0102,0,2.0175,2.0175,2.0176,2.0157,2.0156,2.0154,2.0153,2.0226,2.0229,2.0232,0,0,0,0,0,0,0,0,0,0,0,0,0,1.9939,1.9942,2.0101,2.0102,2.0103,2.0174,2.0175,2.0176,2.0157,2.0155,2.0154,2.0152,2.0225,2.0228,2.0232,0,0,0,0,0,0,0,0,0,0,0,0,0,2.0011,1.9943,2.0101,2.0102,2.0103,2.0174,2.0176,2.0177,2.0158,2.0155,2.0153,2.0151,2.0223,2.0228,2.0233,2.0307,0,0,2.0248,2.025,0,0,0,0,0,0,0,0,2.0007,2.0017,2.0101,2.0102,2.0103,2.0154,2.0145,2.022,2.0158,2.0137,2.0153,2.015,2.0204,2.021,2.0229,2.0311,2.0314,2.0249,2.0252,2.0254,2.0255,0,0,0,0,0,0,0,2.0002,2.0013,2.013,2.0102,2.0103,2.0097,2.0105,2.0159,2.0181,2.0138,2.0137,2.0146,2.0204,2.0224,2.023,2.0315,2.0248,2.0253,2.0256,2.0258,2.0459,2.0462,0,0,0,0,0,0,1.9996,2.0009,2.0127,2.0132,2.0049,2.0102,2.0111,2.014,2.0181,2.0185,2.0148,2.0145,2.0216,2.0224,2.0233,2.0321,2.0254,2.0258,2.0261,2.0457,2.046,2.0462,0,0,0,0,0,0,1.9993,2.0007,2.0125,2.0071,2.0085,2.0107,2.014,2.0143,2.0163,2.0188,2.0192,2.0165,2.0215,2.0226,2.0289,2.0323,2.026,2.0265,2.0454,2.0458,2.0461,2.0499,0,0,0,0,0,0,1.9989,2.0006,2.0036,2.0071,2.0088,2.0181,2.0142,2.0146,2.0172,2.0169,2.0205,2.0209,2.0214,2.0281,2.0293,2.0329,2.0269,2.0451,2.0456,2.046,2.0495,2.0504,2.0511,0,0,0,0,0,1.9983,2.0043,2.0037,2.0052,2.0126,2.0183,2.0192,2.0198,2.0175,2.0204,2.022,2.0208,2.0318,2.0288,2.0301,2.0339,2.0449,2.0455,2.046,2.0492,2.0502,2.0511,0,0,0,0,0,0,2.0011,2.0048,2.0042,2.0116,2.0146,2.0179,2.0216,2.0209,2.0246,2.0242,2.0246,2.0255,2.0319,2.0335,2.0301,2.0412,2.038,2.0388,2.0399,2.041,2.0417,2.0412,2.0273,0,0,0,0,0,2.0026,2.007,2.01,2.0162,2.0178,2.0194,2.022,2.0221,2.0253,2.0265,2.0286,2.0316,2.0357,2.0384,2.0424,2.0497,2.0504,2.053,2.0538,2.0544,2.0551,2.059,2.0601,2.048,2.048,2.048,0,0,2.0056,2.0082,2.011,2.0168,2.0192,2.0237,2.0205,2.0254,2.0287,2.0272,2.0333,2.0349,2.0383,2.0451,2.0482,2.0467,2.0586,2.0551,2.0556,2.056,2.0596,2.0608,2.0618,2.0484,2.0483,2.0483,0,0,2.0136,2.016,2.0214,2.0239,2.0275,2.0286,2.0298,2.0332,2.0343,2.0404,2.0393,2.0431,2.0503,2.0527,2.0548,2.0635,2.0624,2.0647,2.0689,2.0727,2.0736,2.0745,2.0774,2.0785,2.0654,2.0654,2.0654,0,2.0169,2.0237,2.0243,2.0292,2.0317,2.0307,2.036,2.0383,2.0431,2.0447,2.043,2.0518,2.054,2.0613,2.0634,2.0652,2.0665,2.0643,2.0735,2.0743,2.0751,2.0779,2.0791,2.0657,2.0656,2.0656,2.0656,0,2.0276,2.0323,2.0362,2.0408,2.0438,2.0489,2.0501,2.053,2.0529,2.054,2.0602,2.0627,2.0671,2.0689,2.0688,2.0761,2.075,2.0733,2.0701,2.0765,2.0792,2.0803,2.066,2.0659,2.0659,2.0658,0,0,2.0376,2.0423,2.0438,2.0458,2.0497,2.0532,2.0582,2.0626,2.065,2.0682,2.0723,2.0783,2.0767,2.0792,2.0793,2.0826,2.0891,2.0805,2.0806,2.0819,2.0972,2.0984,2.0996,2.0884,2.0887,2.0888,2.0969,0,2.0458,2.0547,2.0552,2.0633,2.0675,2.0665,2.0708,2.0735,2.0747,2.0784,2.0797,2.0839,2.0815,2.083,2.0862,2.0877,2.0922,2.0871,2.0921,2.0923,2.0913,2.101,2.1024,2.1098,2.0979,2.0981,2.0982,0,2.0566,2.0601,2.0686,2.0717,2.0735,2.0774,2.0813,2.0849,2.0879,2.0886,2.0912,2.0909,2.0958,2.0924,2.0991,2.0956,2.0977,2.0987,2.099,2.0995,2.0956,2.1017,2.1122,2.1133,2.0999,2.0997,2.0996,0,2.0629,2.0698,2.0757,2.0775,2.0813,2.084,2.0857,2.0886,2.0911,2.0944,2.096,2.0999,2.1021,2.105,2.1056,2.1031,2.1123,2.109,2.1128,2.1128,2.1148,2.1147,2.1258,2.1163,2.1162,2.1162,2.1162,0,2.0719,2.0771,2.0786,2.0822,2.0879,2.0884,2.094,2.0955,2.098,2.1018,2.1011,2.1046,2.1053,2.1089,2.1094,2.1148,2.1158,2.1163,2.1164,2.1164,2.1163,2.1178,2.1172,2.1165,2.1165,2.1164,2.1164,0,2.08,2.0812,2.0875,2.0906,2.0915,2.0955,2.0981,2.1015,2.1026,2.1074,2.1085,2.1101,2.1144,2.1153,2.1203,2.1206,2.127,2.1266,2.126,2.126,2.1298,2.1294,2.1422,2.1438,2.1332,2.1333,2.1334,0,2.0857,2.0896,2.0931,2.0956,2.0974,2.1015,2.1041,2.1046,2.1073,2.111,2.1139,2.118,2.1214,2.1282,2.1297,2.1335,2.1331,2.1373,2.1337,2.1335,2.1331,2.1328,2.1332,2.138,2.1381,2.1382,2.1383,0,2.0956,2.096,2.0997,2.1037,2.1067,2.1098,2.1128,2.1149,2.1158,2.1188,2.1232,2.1258,2.1308,2.1349,2.1387,2.1403,2.1394,2.1394,2.1405,2.1405,2.14,2.1403,2.1279,2.1391,2.1391,2.139,2.139,2.1389,2.1026,2.106,2.109,2.1131,2.1154,2.1181,2.1214,2.1229,2.1266,2.1308,2.1309,2.1356,2.1383,2.1433,2.1451,2.1487,2.1473,2.1489,2.1493,2.1497,2.15,2.1395,2.1493,2.1493,2.1493,2.1493,2.1493,0,2.1124,2.1142,2.1181,2.1222,2.1254,2.1244,2.1276,2.1303,2.1345,2.1371,2.1404,2.1453,2.1493,2.1511,2.1549,2.1574,2.1571,2.1584,2.1582,2.1585,2.151,2.1497,2.1586,2.1586,2.1586,2.1586,2.1586,2.1585,2.1179,2.1236,2.1243,2.131,2.1328,2.1374,2.1393,2.1418,2.1439,2.1494,2.1527,2.1539,2.1561,2.1601,2.1636,2.164,2.1654,2.1669,2.1671,2.16,2.1591,2.1582,2.1569,2.1672,2.1672,2.1743,2.1744,2.1744]}]]